HODOYOSHI-4

Last updated on Mon Sep 21 2026 00:02:45 GMT+0000 (Coordinated Universal Time)

1 40011U 14033B 26263.57590359 .00000546 00000+0 64421-4 0 9994 2 40011 97.5485 83.8323 0023497 353.0109 7.0777 14.88316590662994
UTC large
Height (km)
Speed (km/s)
/
Latitude / Longitude
Inclination (degrees)
Orbital Period (minutes)
Azimuth
Elevation
Range (km)
Doppler Factor

Next 0 passes for location: London (51.5072 / 0.1276)

No passes found over London.
HODOYOSHI-4